HIMAWARI-8 (40267 NORAD) Tracking and Keplerian Element Data

This shows tracking and keplerian element data for the satellite.

Feedback or suggestion? Click here.




ElementValue
Catalog40267
NameHIMAWARI-8
Epoch Orbit1650
Epoch Day106.88512427
Epoch Year2019
RAAN131.7765
Inclination0.0249
Eccentricity8.12E-05
Argument of Perigee243.421
Mean Anonmoly288.8397
Mean Motion1.00271728
Decay Rate-2.97E-06
L11 40267U 14060A 19106.88512427 -.00000297 00000-0 00000-0 0 9993
L22 40267 0.0249 131.7765 0000812 243.4210 288.8397 1.00271728 16508

Live tracking and technical data element details for HIMAWARI-8 (NORAD 40267). HIMAWARI-8 can be tracked NOW for your location showing map with azimuth and elevation plus other details from your city location.

Track the satellite on the map from your city or location and see movement details for azimuth, elevation, latitude, longitude, range, height, and movement on the map or in text.







IsCatalogInMostPopularTable: catalog: 40267, numindb: 203
Update: records affected: 1



GetName: 40267 HIMAWARI-8

Hit Count: updated at: Sat, 20 Apr 2019 00:11:32 GMT